| time (UTC) | temp F | wind direction | speed knots | gust knots | rain 1hr in | rain 24hr in | rain mn in | humidity % | barometer mb |
| 20260510201528 | 49 | 324 | 5.2 | 10.4 | 0.00 | 0.00 | 0.00 | 65 | 1016.6 |
| 20260510200029 | 49 | 14 | 4.3 | 12.2 | 0.00 | 0.00 | 0.00 | 66 | 1016.5 |
| 20260510194539 | 50 | 14 | 5.2 | 12.2 | 0.00 | 0.00 | 0.00 | 69 | 1016.5 |
| 20260510193030 | 50 | 352 | 3.5 | 13.0 | 0.00 | 0.00 | 0.00 | 70 | 1016.4 |
| 20260510191528 | 50 | 334 | 4.3 | 14.8 | 0.00 | 0.00 | 0.00 | 69 | 1016.3 |
| 20260510190030 | 50 | 184 | 4.3 | 15.6 | 0.00 | 0.00 | 0.00 | 70 | 1016.3 |
| 20260510184535 | 50 | 15 | 5.2 | 15.6 | 0.00 | 0.00 | 0.00 | 72 | 1016.4 |
| 20260510183031 | 50 | 5 | 5.2 | 12.2 | 0.00 | 0.00 | 0.00 | 72 | 1016.2 |
| 20260510181530 | 51 | 285 | 5.2 | 15.6 | 0.00 | 0.00 | 0.00 | 72 | 1016.4 |
| 20260510180029 | 51 | 65 | 6.1 | 15.6 | 0.00 | 0.00 | 0.00 | 73 | 1016.3 |
| 20260510174530 | 51 | 355 | 5.2 | 16.5 | 0.00 | 0.00 | 0.00 | 73 | 1016.2 |
| 20260510173030 | 52 | 346 | 5.2 | 15.6 | 0.00 | 0.00 | 0.00 | 73 | 1016.4 |
| 20260510171531 | 52 | 334 | 5.2 | 13.0 | 0.00 | 0.00 | 0.00 | 73 | 1016.4 |
| 20260510170030 | 52 | 280 | 5.2 | 13.9 | 0.00 | 0.00 | 0.00 | 73 | 1016.5 |
| 20260510164530 | 52 | 11 | 4.3 | 13.0 | 0.00 | 0.00 | 0.00 | 73 | 1016.5 |
| 20260510163030 | 52 | 277 | 6.1 | 14.8 | 0.00 | 0.00 | 0.00 | 73 | 1016.6 |
| 20260510161535 | 53 | 329 | 5.2 | 12.2 | 0.00 | 0.00 | 0.00 | 72 | 1016.9 |
| 20260510160035 | 53 | 334 | 5.2 | 14.8 | 0.00 | 0.00 | 0.00 | 73 | 1017.2 |
| 20260510154530 | 53 | 315 | 5.2 | 13.0 | 0.00 | 0.00 | 0.00 | 73 | 1017.3 |
| 20260510153034 | 54 | 30 | 4.3 | 13.9 | 0.00 | 0.00 | 0.00 | 72 | 1017.4 |
| 20260510151530 | 54 | 5 | 4.3 | 12.2 | 0.00 | 0.00 | 0.00 | 72 | 1017.6 |
| 20260510150041 | 54 | 298 | 3.5 | 12.2 | 0.00 | 0.00 | 0.00 | 72 | 1017.7 |
| 20260510144535 | 54 | 315 | 3.5 | 11.3 | 0.00 | 0.00 | 0.00 | 72 | 1018.0 |
| 20260510143028 | 55 | 306 | 4.3 | 12.2 | 0.00 | 0.00 | 0.00 | 69 | 1018.0 |
| 20260510141533 | 54 | 325 | 2.6 | 13.0 | 0.00 | 0.00 | 0.00 | 69 | 1018.1 |
| 20260510140029 | 54 | 360 | 3.5 | 12.2 | 0.00 | 0.00 | 0.00 | 69 | 1018.0 |
| 20260510134529 | 54 | 207 | 3.5 | 11.3 | 0.00 | 0.00 | 0.00 | 70 | 1018.2 |
| 20260510133028 | 54 | 108 | 4.3 | 12.2 | 0.00 | 0.00 | 0.00 | 70 | 1018.2 |
| 20260510131530 | 55 | 305 | 2.6 | 10.4 | 0.00 | 0.00 | 0.00 | 71 | 1018.3 |
| 20260510130030 | 55 | 149 | 3.5 | 11.3 | 0.00 | 0.00 | 0.00 | 71 | 1018.5 |
| 20260510124531 | 55 | 94 | 3.5 | 12.2 | 0.00 | 0.00 | 0.00 | 70 | 1018.6 |
| 20260510123034 | 55 | 284 | 3.5 | 12.2 | 0.00 | 0.00 | 0.00 | 69 | 1018.5 |
| 20260510121528 | 55 | 84 | 2.6 | 10.4 | 0.00 | 0.00 | 0.00 | 72 | 1018.6 |
| 20260510120031 | 54 | 326 | 3.5 | 10.4 | 0.00 | 0.00 | 0.00 | 72 | 1018.7 |
| 20260510114536 | 53 | 341 | 2.6 | 10.4 | 0.00 | 0.00 | 0.00 | 72 | 1018.8 |
| 20260510113031 | 54 | 287 | 2.6 | 13.0 | 0.00 | 0.00 | 0.00 | 72 | 1019.1 |
| 20260510111528 | 53 | 302 | 3.5 | 11.3 | 0.00 | 0.00 | 0.00 | 72 | 1019.2 |
| 20260510110031 | 53 | 281 | 3.5 | 10.4 | 0.00 | 0.00 | 0.00 | 74 | 1019.3 |
| 20260510104534 | 52 | 250 | 3.5 | 13.0 | 0.00 | 0.00 | 0.00 | 75 | 1019.4 |
| 20260510103028 | 51 | 210 | 3.5 | 12.2 | 0.00 | 0.00 | 0.00 | 75 | 1019.5 |
| 20260510101528 | 51 | 296 | 3.5 | 11.3 | 0.00 | 0.00 | 0.00 | 76 | 1019.7 |
| 20260510100029 | 51 | 292 | 2.6 | 12.2 | 0.00 | 0.00 | 0.00 | 77 | 1019.6 |
| 20260510094538 | 51 | 269 | 3.5 | 12.2 | 0.00 | 0.00 | 0.00 | 78 | 1019.6 |
| 20260510093028 | 50 | 325 | 5.2 | 13.9 | 0.00 | 0.00 | 0.00 | 78 | 1019.7 |
| 20260510091530 | 50 | 103 | 3.5 | 11.3 | 0.00 | 0.00 | 0.00 | 79 | 1019.7 |
| 20260510090028 | 50 | 94 | 5.2 | 13.9 | 0.00 | 0.00 | 0.00 | 79 | 1019.6 |
| 20260510084527 | 50 | 298 | 6.1 | 13.0 | 0.00 | 0.00 | 0.00 | 80 | 1019.7 |
| 20260510083028 | 50 | 337 | 5.2 | 12.2 | 0.00 | 0.00 | 0.00 | 80 | 1019.7 |
| 20260510081538 | 50 | 263 | 5.2 | 13.0 | 0.00 | 0.00 | 0.00 | 80 | 1019.6 |
| 20260510080032 | 50 | 306 | 4.3 | 13.0 | 0.00 | 0.00 | 0.00 | 80 | 1019.5 |
| 20260510074529 | 50 | 309 | 3.5 | 11.3 | 0.00 | 0.00 | 0.00 | 80 | 1019.4 |
| 20260510073034 | 50 | 277 | 5.2 | 13.0 | 0.00 | 0.00 | 0.00 | 80 | 1019.6 |
| 20260510071531 | 50 | 312 | 5.2 | 13.9 | 0.00 | 0.00 | 0.00 | 80 | 1019.5 |
| 20260510070035 | 50 | 276 | 4.3 | 12.2 | 0.00 | 0.00 | 0.00 | 81 | 1019.4 |
| 20260510064530 | 50 | 340 | 4.3 | 10.4 | 0.00 | 0.00 | 0.00 | 82 | 1019.4 |
| 20260510063029 | 50 | 352 | 4.3 | 11.3 | 0.00 | 0.00 | 0.00 | 82 | 1019.1 |
| 20260510061533 | 50 | 16 | 6.1 | 11.3 | 0.00 | 0.00 | 0.00 | 82 | 1019.1 |
| 20260510060031 | 50 | 360 | 5.2 | 13.0 | 0.00 | 0.00 | 0.00 | 82 | 1018.9 |
| 20260510054535 | 50 | 355 | 3.5 | 11.3 | 0.00 | 0.00 | 0.00 | 83 | 1018.9 |
| 20260510053030 | 50 | 344 | 4.3 | 10.4 | 0.00 | 0.00 | 0.00 | 84 | 1018.9 |
| 20260510051534 | 50 | 266 | 3.5 | 7.8 | 0.00 | 0.00 | 0.00 | 84 | 1018.8 |
| 20260510050031 | 50 | 271 | 2.6 | 11.3 | 0.00 | 0.00 | 0.00 | 84 | 1018.9 |
| 20260510044536 | 50 | 291 | 1.7 | 7.8 | 0.00 | 0.00 | 0.00 | 84 | 1018.9 |
| 20260510043030 | 50 | 303 | 3.5 | 12.2 | 0.00 | 0.00 | 0.00 | 84 | 1019.0 |
| 20260510041529 | 50 | 275 | 4.3 | 10.4 | 0.00 | 0.00 | 0.00 | 84 | 1019.0 |
| 20260510040037 | 50 | 288 | 5.2 | 13.9 | 0.00 | 0.00 | 0.00 | 84 | 1019.2 |
| 20260510034529 | 50 | 319 | 5.2 | 13.0 | 0.00 | 0.00 | 0.00 | 84 | 1019.2 |
| 20260510033030 | 50 | 276 | 5.2 | 13.0 | 0.00 | 0.00 | 0.00 | 84 | 1019.3 |
| 20260510031546 | 51 | 329 | 5.2 | 13.0 | 0.00 | 0.00 | 0.00 | 84 | 1019.4 |
| 20260510030034 | 51 | 298 | 3.5 | 13.0 | 0.00 | 0.00 | 0.00 | 84 | 1019.3 |
| 20260510024530 | 51 | 298 | 4.3 | 11.3 | 0.00 | 0.00 | 0.00 | 84 | 1019.4 |
| 20260510023028 | 51 | 346 | 3.5 | 13.9 | 0.00 | 0.00 | 0.00 | 85 | 1019.3 |
| 20260510021532 | 51 | 306 | 3.5 | 13.0 | 0.00 | 0.00 | 0.00 | 86 | 1019.3 |
| 20260510020028 | 51 | 234 | 3.5 | 10.4 | 0.00 | 0.00 | 0.00 | 86 | 1019.4 |
| 20260510014528 | 52 | 23 | 3.5 | 10.4 | 0.00 | 0.00 | 0.00 | 86 | 1019.3 |
| 20260510013030 | 52 | 338 | 3.5 | 10.4 | 0.00 | 0.00 | 0.00 | 87 | 1019.4 |
| 20260510011530 | 52 | 319 | 2.6 | 9.6 | 0.00 | 0.00 | 0.00 | 87 | 1019.4 |
| 20260510010030 | 52 | 306 | 1.7 | 9.6 | 0.00 | 0.00 | 0.00 | 87 | 1019.6 |
| 20260510004528 | 52 | 33 | 4.3 | 10.4 | 0.00 | 0.00 | 0.00 | 87 | 1019.6 |
| 20260510003031 | 52 | 284 | 2.6 | 11.3 | 0.00 | 0.00 | 0.00 | 87 | 1019.4 |
| 20260510001530 | 52 | 49 | 5.2 | 12.2 | 0.00 | 0.00 | 0.00 | 88 | 1019.4 |
| 20260510000030 | 52 | 284 | 6.1 | 12.2 | 0.00 | 0.00 | 0.00 | 88 | 1019.4 |
| 20260509234533 | 52 | 302 | 5.2 | 13.9 | 0.00 | 0.00 | 0.00 | 88 | 1019.3 |
| 20260509233030 | 51 | 226 | 5.2 | 17.4 | 0.00 | 0.00 | 0.00 | 88 | 1019.3 |
| 20260509231528 | 51 | 318 | 5.2 | 12.2 | 0.00 | 0.00 | 0.00 | 88 | 1019.4 |
| 20260509230030 | 51 | 319 | 5.2 | 10.4 | 0.00 | 0.00 | 0.00 | 88 | 1019.5 |
| 20260509224529 | 51 | 322 | 3.5 | 13.0 | 0.00 | 0.00 | 0.00 | 88 | 1019.5 |
| 20260509223028 | 51 | 9 | 4.3 | 13.0 | 0.00 | 0.00 | 0.00 | 88 | 1019.5 |
| 20260509221533 | 51 | 16 | 5.2 | 13.0 | 0.00 | 0.00 | 0.00 | 88 | 1019.4 |
| 20260509220027 | 51 | 347 | 4.3 | 12.2 | 0.00 | 0.00 | 0.00 | 87 | 1019.6 |
| 20260509214527 | 51 | 327 | 3.5 | 13.0 | 0.00 | 0.00 | 0.00 | 87 | 1019.6 |
| 20260509213029 | 51 | 10 | 4.3 | 12.2 | 0.00 | 0.00 | 0.00 | 86 | 1019.7 |
| 20260509211530 | 51 | 41 | 4.3 | 13.9 | 0.00 | 0.00 | 0.00 | 86 | 1019.5 |
| 20260509210038 | 51 | 11 | 5.2 | 13.9 | 0.00 | 0.00 | 0.00 | 86 | 1019.5 |
| 20260509204530 | 51 | 16 | 4.3 | 12.2 | 0.00 | 0.00 | 0.00 | 86 | 1019.5 |
| 20260509203034 | 51 | 265 | 5.2 | 13.9 | 0.00 | 0.00 | 0.00 | 86 | 1019.4 |